Regional Weather Roundup
Issued by NWS State College, PA

Home | Current Version | Previous Version | Text Only | Print | Product List | Glossary On
Versions: 1 2 3 4 5 6 7 8 9 10 11 12 13 14 15 16 17 18 19 20 21 22 23 24 25 26 27 28 29 30 31 32 33 34 35 36 37 38 39 40 41 42 43 44 45 46 47 48 49 50
000
ASUS41 KCTP 282210
RWRCTP

REGIONAL WEATHER ROUNDUP
NATIONAL WEATHER SERVICE STATE COLLEGE PA
600 PM EDT THU JUL 28 2016

Note: "fair" indicates few or no clouds below 12,000 feet with no
significant weather and/or obstructions to visibility.

* = STATION THAT DOES NOT REPORT PRECIPITATION /E.G. RAIN...SNOW...ETC/
    THUNDER OR FOG.

PAZ002>004-007>009-013>016-020>023-029>032-282300-
WESTERN PENNSYLVANIA

CITY           SKY/WX    TMP DP  RH WIND       PRES   REMARKS
ERIE           CLOUDY    82  65  56 NE3       29.87S
MEADVILLE      CLOUDY    69  64  84 CALM      29.92R
FRANKLIN*      CLOUDY    70  64  83 SE6       29.93R
NEW CASTLE     FAIR      75  65  70 CALM      29.91R
BEAVER COUNTY  MOSUNNY   73  66  78 CALM      29.91S
BUTLER*        CLOUDY    73  68  83 SE5       29.94R
PITTSBURGH INT CLOUDY    72  66  81 S7        29.91S
PITTSBURGH     PTSUNNY   71  66  84 S8        29.91R
INDIANA*       NOT AVBL
LATROBE        LGT RAIN  72  72 100 CALM      29.93S FOG
WASHINGTON CO* CLOUDY    70  66  88 CALM      29.92R
$$

PAZ004>006-010>012-017>019-024>028-033>037-041-042-045-046-049>053-282300-
CENTRAL PENNSYLVANIA

CITY           SKY/WX    TMP DP  RH WIND       PRES   REMARKS
BRADFORD       CLOUDY    75  64  68 N3        29.94S
DUBOIS         CLOUDY    72  68  87 SW5       29.93R
CLEARFIELD     CLOUDY    73  68  84 SW3       29.93R
JOHNSTOWN      RAIN      68  65  90 SW5       29.97S FOG
ALTOONA        LGT RAIN  71  70  96 W3        29.96R FOG
STATE COLLEGE  LGT RAIN  73  68  83 SW6       29.90F
WILLIAMSPORT   PTSUNNY   86  66  51 CALM      29.82F
SELINSGROVE    LGT RAIN  81  74  79 S3        29.86S
FT INDIANTOWN  LGT RAIN  75  71  87 VRB5      29.89
CAPITAL CITY   CLOUDY    80  69  69 E16G23    29.88R
HARRISBURG     CLOUDY    78  71  79 E15       29.88R
YORK           CLOUDY    79  69  71 SE5       29.88R
$$

PAZ038>040-043-044-047-048-054-055-060>062-067>071-282300-
EASTERN PENNSYLVANIA

CITY           SKY/WX    TMP DP  RH WIND       PRES   REMARKS
SCRANTON       CLOUDY    83  69  62 S12G20    29.86S
MOUNT POCONO   CLOUDY    74  66  76 S10       29.95R
ALLENTOWN      LGT RAIN  77  72  84 S9        29.90S
QUAKERTOWN*    CLOUDY    75  73  94 CALM      29.93S
READING        LGT RAIN  73  68  84 CALM      29.89S
LANCASTER      LGT RAIN  74  72  93 MISG      29.90R
COATESVILLE    CLOUDY    73  72  94 E6        29.93R
POTTSTOWN      CLOUDY    74  72  93 CALM      29.92F
BLUE BELL      CLOUDY    72  70  94 S5        29.90F
DOYLESTOWN     LGT RAIN  74  74 100 VRB3      29.91R
WILLOW GROVE   NOT AVBL
NORTH PHILA    CLOUDY    77  73  87 S7        29.92S
PHILADELPHIA   LGT RAIN  75  72  90 VRB5      29.90F
$$




USA.gov is the U.S. government's official web portal to all federal, state and local government web resources and services.